Climatologie pour Saint-Brevin les Pins
Jour • Résumé pour mars 3, 2017 Système :  Métrique    Anglais   Mixte
« - 1 jour
+ 1 jour »
Jour Semaine Mois Année Personnalisé
  Maximum : Minimum : Moyenne :
Température sous abri : 14.1 °C 8.4 °C 11 °C
Point de rosée : 11.0 °C 7.6 °C 9.2 °C
Humidité : 96 % 80 % 89 %
Vitesse du vent : 27.4 km/h 0.0 km/h 10.4 km/h
Rafale : 35.4 km/h - -
Direction :- - SSW
Pression : 1010.0 hPa 992.4 hPa -
Précipitations : 0.5 mm    
Historical Graphs
 
 
Tableau de données pour mars 3, 2017
Heure Tempé Pt rosée Pression Vent Vitesse Rafale Humidité Taux pluie (/hr) Soleil
00:00 9.4 °C 7.7 °C 1010.0 hPa SSE 12.9 km/h 16.1 km/h 89 % 0.3 mm 0 W/m2
00:05 9.4 °C 7.7 °C 1010.0 hPa SSE 9.7 km/h 16.1 km/h 89 % 0.3 mm 0 W/m2
00:10 9.4 °C 7.7 °C 1010.0 hPa SSE 11.3 km/h 14.5 km/h 89 % 0.3 mm 0 W/m2
00:15 9.5 °C 7.6 °C 1010.0 hPa South 6.4 km/h 19.3 km/h 88 % 0.3 mm 0 W/m2
00:20 9.6 °C 7.7 °C 1010.0 hPa South 17.7 km/h 19.3 km/h 88 % 0.3 mm 0 W/m2
00:25 9.6 °C 7.7 °C 1009.7 hPa South 11.3 km/h 19.3 km/h 88 % 0.3 mm 0 W/m2
00:30 9.6 °C 7.7 °C 1009.7 hPa South 8.0 km/h 17.7 km/h 88 % 0.0 mm 0 W/m2
00:35 9.7 °C 7.8 °C 1009.7 hPa South 6.4 km/h 17.7 km/h 88 % 0.0 mm 0 W/m2
00:40 9.7 °C 7.8 °C 1009.7 hPa South 8.0 km/h 16.1 km/h 88 % 0.0 mm 0 W/m2
00:45 9.8 °C 7.7 °C 1009.4 hPa South 6.4 km/h 20.9 km/h 87 % 0.0 mm 0 W/m2
00:50 9.9 °C 7.8 °C 1009.4 hPa South 11.3 km/h 20.9 km/h 87 % 0.0 mm 0 W/m2
00:55 9.9 °C 7.9 °C 1009.4 hPa SE 4.8 km/h 19.3 km/h 87 % 0.0 mm 0 W/m2
01:00 9.9 °C 7.9 °C 1009.0 hPa SSW 6.4 km/h 19.3 km/h 87 % 0.0 mm 0 W/m2
01:05 9.9 °C 7.7 °C 1009.0 hPa SSE 17.7 km/h 24.1 km/h 86 % 0.0 mm 0 W/m2
01:10 10.0 °C 7.8 °C 1009.0 hPa SSE 8.0 km/h 24.1 km/h 86 % 0.0 mm 0 W/m2
01:15 10.0 °C 7.9 °C 1008.7 hPa South 11.3 km/h 22.5 km/h 87 % 0.0 mm 0 W/m2
01:20 10.0 °C 7.9 °C 1008.7 hPa South 8.0 km/h 22.5 km/h 87 % 0.0 mm 0 W/m2
01:25 10.1 °C 8.0 °C 1008.7 hPa SSE 9.7 km/h 19.3 km/h 87 % 0.0 mm 0 W/m2
01:30 10.1 °C 8.0 °C 1008.4 hPa South 16.1 km/h 20.9 km/h 87 % 0.0 mm 0 W/m2
01:35 10.1 °C 8.0 °C 1008.4 hPa South 8.0 km/h 20.9 km/h 87 % 0.0 mm 0 W/m2
01:40 10.1 °C 8.0 °C 1008.4 hPa South 12.9 km/h 19.3 km/h 87 % 0.0 mm 0 W/m2
01:45 10.2 °C 8.1 °C 1008.4 hPa SSE 11.3 km/h 20.9 km/h 87 % 0.0 mm 0 W/m2
01:50 10.2 °C 8.2 °C 1008.0 hPa South 8.0 km/h 20.9 km/h 87 % 0.0 mm 0 W/m2
01:55 10.2 °C 8.2 °C 1008.0 hPa SSE 14.5 km/h 19.3 km/h 87 % 0.0 mm 0 W/m2
02:00 10.3 °C 8.2 °C 1008.0 hPa South 11.3 km/h 19.3 km/h 87 % 0.0 mm 0 W/m2
02:10 10.3 °C 8.4 °C 1008.0 hPa South 11.3 km/h 19.3 km/h 88 % 0.0 mm 0 W/m2
02:15 10.3 °C 8.4 °C 1007.7 hPa SSE 8.0 km/h 17.7 km/h 88 % 0.0 mm 0 W/m2
02:20 10.4 °C 8.5 °C 1007.7 hPa South 11.3 km/h 19.3 km/h 88 % 0.0 mm 0 W/m2
02:25 10.4 °C 8.5 °C 1007.3 hPa SSE 12.9 km/h 19.3 km/h 88 % 0.0 mm 0 W/m2
02:30 10.3 °C 8.4 °C 1007.3 hPa SE 9.7 km/h 17.7 km/h 88 % 0.0 mm 0 W/m2
02:35 10.3 °C 8.6 °C 1007.3 hPa SSE 4.8 km/h 17.7 km/h 89 % 0.0 mm 0 W/m2
02:40 10.4 °C 8.7 °C 1007.3 hPa South 8.0 km/h 22.5 km/h 89 % 0.0 mm 0 W/m2
02:45 10.4 °C 8.7 °C 1007.3 hPa South 16.1 km/h 22.5 km/h 89 % 0.0 mm 0 W/m2
02:50 10.5 °C 8.8 °C 1007.0 hPa South 6.4 km/h 16.1 km/h 89 % 0.0 mm 0 W/m2
02:55 10.5 °C 8.8 °C 1007.0 hPa South 8.0 km/h 20.9 km/h 89 % 0.0 mm 0 W/m2
03:00 10.6 °C 8.8 °C 1006.7 hPa SSE 11.3 km/h 20.9 km/h 89 % 0.0 mm 0 W/m2
03:05 10.6 °C 8.9 °C 1006.7 hPa South 12.9 km/h 17.7 km/h 89 % 0.0 mm 0 W/m2
03:10 10.6 °C 8.9 °C 1006.3 hPa SSE 9.7 km/h 17.7 km/h 89 % 0.0 mm 0 W/m2
03:15 10.7 °C 8.9 °C 1006.3 hPa South 6.4 km/h 17.7 km/h 89 % 0.0 mm 0 W/m2
03:20 10.7 °C 8.9 °C 1006.3 hPa South 6.4 km/h 17.7 km/h 89 % 0.0 mm 0 W/m2
03:25 10.7 °C 8.9 °C 1006.3 hPa South 11.3 km/h 17.7 km/h 89 % 0.0 mm 0 W/m2
03:30 10.7 °C 8.9 °C 1006.3 hPa SSE 9.7 km/h 19.3 km/h 89 % 0.0 mm 0 W/m2
03:35 10.7 °C 9.0 °C 1006.0 hPa South 14.5 km/h 19.3 km/h 89 % 0.0 mm 0 W/m2
03:45 10.7 °C 9.1 °C 1006.0 hPa South 9.7 km/h 19.3 km/h 90 % 0.0 mm 0 W/m2
03:50 10.7 °C 9.1 °C 1005.6 hPa SSW 12.9 km/h 20.9 km/h 90 % 0.0 mm 0 W/m2
03:55 10.7 °C 9.1 °C 1005.6 hPa South 4.8 km/h 20.9 km/h 90 % 0.0 mm 0 W/m2
04:00 10.6 °C 9.0 °C 1005.3 hPa SSW 12.9 km/h 19.3 km/h 90 % 0.0 mm 0 W/m2
04:05 10.6 °C 9.0 °C 1005.3 hPa SSE 9.7 km/h 17.7 km/h 90 % 0.0 mm 0 W/m2
04:10 10.6 °C 9.0 °C 1005.0 hPa South 9.7 km/h 17.7 km/h 90 % 0.0 mm 0 W/m2
04:20 10.6 °C 9.1 °C 1005.0 hPa SSE 8.0 km/h 24.1 km/h 91 % 0.0 mm 0 W/m2
04:25 10.6 °C 9.1 °C 1005.0 hPa South 8.0 km/h 19.3 km/h 91 % 0.0 mm 0 W/m2
04:30 10.6 °C 9.1 °C 1004.6 hPa South 11.3 km/h 17.7 km/h 91 % 0.0 mm 0 W/m2
04:35 10.5 °C 9.1 °C 1004.6 hPa South 9.7 km/h 17.7 km/h 91 % 0.0 mm 0 W/m2
04:40 10.5 °C 9.1 °C 1004.6 hPa South 9.7 km/h 17.7 km/h 91 % 0.0 mm 0 W/m2
04:45 10.5 °C 9.1 °C 1004.6 hPa South 6.4 km/h 14.5 km/h 91 % 0.0 mm 0 W/m2
04:50 10.5 °C 9.1 °C 1004.6 hPa South 8.0 km/h 17.7 km/h 91 % 0.0 mm 0 W/m2
04:55 10.5 °C 9.1 °C 1004.3 hPa South 11.3 km/h 19.3 km/h 91 % 0.0 mm 0 W/m2
05:00 10.5 °C 9.1 °C 1004.3 hPa South 8.0 km/h 19.3 km/h 91 % 0.0 mm 0 W/m2
05:05 10.5 °C 9.1 °C 1004.3 hPa South 6.4 km/h 19.3 km/h 91 % 0.0 mm 0 W/m2
05:10 10.5 °C 9.3 °C 1003.9 hPa South 11.3 km/h 19.3 km/h 92 % 0.0 mm 0 W/m2
05:15 10.5 °C 9.3 °C 1003.9 hPa SE 6.4 km/h 16.1 km/h 92 % 0.0 mm 0 W/m2
05:20 10.5 °C 9.3 °C 1003.6 hPa SSE 12.9 km/h 16.1 km/h 92 % 0.0 mm 0 W/m2
05:25 10.4 °C 9.2 °C 1003.6 hPa SSE 9.7 km/h 16.1 km/h 92 % 0.0 mm 0 W/m2
05:30 10.4 °C 9.2 °C 1003.6 hPa SSE 4.8 km/h 14.5 km/h 92 % 0.0 mm 0 W/m2
05:35 10.3 °C 9.1 °C 1003.3 hPa SE 8.0 km/h 14.5 km/h 92 % 0.0 mm 0 W/m2
05:40 10.3 °C 9.0 °C 1003.3 hPa SSE 9.7 km/h 12.9 km/h 92 % 0.0 mm 0 W/m2
05:45 10.3 °C 9.0 °C 1003.3 hPa SSE 11.3 km/h 12.9 km/h 92 % 0.0 mm 0 W/m2
05:50 10.3 °C 9.0 °C 1003.3 hPa SSW 8.0 km/h 17.7 km/h 92 % 0.0 mm 0 W/m2
05:55 10.3 °C 9.1 °C 1003.3 hPa South 9.7 km/h 17.7 km/h 92 % 0.0 mm 0 W/m2
06:00 10.3 °C 9.1 °C 1002.9 hPa South 4.8 km/h 17.7 km/h 92 % 0.0 mm 0 W/m2
06:05 10.3 °C 9.0 °C 1002.9 hPa South 4.8 km/h 14.5 km/h 92 % 0.0 mm 0 W/m2
06:10 10.3 °C 9.0 °C 1002.9 hPa South 6.4 km/h 14.5 km/h 92 % 0.0 mm 0 W/m2
06:15 10.2 °C 9.0 °C 1002.6 hPa SSE 4.8 km/h 14.5 km/h 92 % 0.0 mm 0 W/m2
06:20 10.2 °C 9.0 °C 1002.6 hPa SSW 9.7 km/h 14.5 km/h 92 % 0.0 mm 0 W/m2
06:25 10.2 °C 9.0 °C 1002.6 hPa SSW 9.7 km/h 17.7 km/h 92 % 0.0 mm 0 W/m2
06:30 10.3 °C 9.2 °C 1002.6 hPa South 12.9 km/h 17.7 km/h 93 % 0.0 mm 0 W/m2
06:35 10.3 °C 9.0 °C 1002.6 hPa SE 4.8 km/h 14.5 km/h 92 % 0.0 mm 0 W/m2
06:40 10.2 °C 9.0 °C 1002.3 hPa SE 4.8 km/h 16.1 km/h 92 % 0.0 mm 0 W/m2
06:45 10.2 °C 8.9 °C 1002.3 hPa SSE 8.0 km/h 16.1 km/h 92 % 0.0 mm 0 W/m2
06:50 10.2 °C 8.9 °C 1002.3 hPa SSE 9.7 km/h 16.1 km/h 92 % 0.0 mm 0 W/m2
06:55 10.2 °C 8.9 °C 1002.3 hPa SE 8.0 km/h 17.7 km/h 92 % 0.0 mm 0 W/m2
07:00 10.2 °C 8.9 °C 1001.9 hPa SSE 6.4 km/h 17.7 km/h 92 % 0.0 mm 0 W/m2
07:05 10.2 °C 8.9 °C 1001.9 hPa SSE 6.4 km/h 19.3 km/h 92 % 0.0 mm 0 W/m2
07:10 10.2 °C 8.9 °C 1001.9 hPa South 11.3 km/h 19.3 km/h 92 % 0.0 mm 0 W/m2
07:15 10.1 °C 8.9 °C 1001.9 hPa SSE 14.5 km/h 17.7 km/h 92 % 0.0 mm 0 W/m2
07:20 10.1 °C 8.8 °C 1001.6 hPa SSE 9.7 km/h 20.9 km/h 92 % 0.0 mm 0 W/m2
07:25 10.1 °C 8.8 °C 1001.6 hPa SSE 6.4 km/h 20.9 km/h 92 % 0.0 mm 0 W/m2
07:30 10.1 °C 8.8 °C 1001.2 hPa South 3.2 km/h 17.7 km/h 92 % 0.0 mm 0 W/m2
07:35 10.0 °C 8.8 °C 1001.2 hPa South 6.4 km/h 17.7 km/h 92 % 0.0 mm 0 W/m2
07:40 9.9 °C 8.7 °C 1001.2 hPa SSE 9.7 km/h 17.7 km/h 92 % 0.0 mm 0 W/m2
07:45 9.9 °C 8.9 °C 1001.2 hPa SSE 4.8 km/h 14.5 km/h 93 % 0.0 mm 0 W/m2
07:50 9.9 °C 8.9 °C 1000.9 hPa South 8.0 km/h 14.5 km/h 93 % 0.0 mm 0 W/m2
07:55 9.8 °C 8.6 °C 1000.9 hPa SE 6.4 km/h 14.5 km/h 92 % 0.0 mm 5 W/m2
08:00 9.8 °C 8.8 °C 1000.9 hPa SSE 6.4 km/h 17.7 km/h 93 % 0.0 mm 7 W/m2
08:05 9.8 °C 8.8 °C 1000.9 hPa SSE 11.3 km/h 17.7 km/h 93 % 0.0 mm 9 W/m2
08:10 9.8 °C 8.8 °C 1000.9 hPa SE 6.4 km/h 12.9 km/h 93 % 0.0 mm 12 W/m2
08:15 9.8 °C 8.8 °C 1000.6 hPa SSE 9.7 km/h 14.5 km/h 93 % 0.0 mm 18 W/m2
08:20 9.8 °C 8.8 °C 1000.6 hPa SSE 9.7 km/h 14.5 km/h 93 % 0.0 mm 21 W/m2
08:25 9.8 °C 8.8 °C 1000.6 hPa South 9.7 km/h 14.5 km/h 93 % 0.0 mm 26 W/m2
08:30 9.8 °C 8.8 °C 1000.6 hPa SE 6.4 km/h 14.5 km/h 93 % 0.0 mm 28 W/m2
08:35 9.9 °C 8.8 °C 1000.6 hPa SSE 3.2 km/h 14.5 km/h 93 % 0.0 mm 32 W/m2
08:40 9.9 °C 8.9 °C 1000.6 hPa East 12.9 km/h 14.5 km/h 93 % 0.0 mm 39 W/m2
08:45 9.9 °C 8.9 °C 1000.2 hPa SE 12.9 km/h 14.5 km/h 93 % 0.0 mm 40 W/m2
08:50 10.0 °C 8.9 °C 1000.2 hPa South 4.8 km/h 16.1 km/h 93 % 0.0 mm 53 W/m2
08:55 10.1 °C 9.0 °C 1000.2 hPa SSW 8.0 km/h 16.1 km/h 93 % 0.0 mm 58 W/m2
09:00 10.1 °C 9.0 °C 1000.2 hPa SSE 6.4 km/h 19.3 km/h 93 % 0.0 mm 56 W/m2
09:10 10.2 °C 9.0 °C 999.9 hPa SSE 17.7 km/h 19.3 km/h 92 % 0.0 mm 97 W/m2
09:15 10.3 °C 9.0 °C 999.9 hPa SSE 6.4 km/h 19.3 km/h 92 % 0.0 mm 97 W/m2
09:20 10.3 °C 9.1 °C 999.9 hPa South 8.0 km/h 17.7 km/h 92 % 0.0 mm 98 W/m2
09:25 10.4 °C 9.1 °C 999.5 hPa SSE 9.7 km/h 20.9 km/h 92 % 0.0 mm 102 W/m2
09:30 10.4 °C 9.2 °C 999.5 hPa SE 4.8 km/h 20.9 km/h 92 % 0.0 mm 116 W/m2
09:35 10.6 °C 9.3 °C 999.2 hPa SSE 14.5 km/h 20.9 km/h 92 % 0.0 mm 132 W/m2
09:40 10.7 °C 9.3 °C 999.2 hPa South 11.3 km/h 22.5 km/h 91 % 0.0 mm 141 W/m2
09:45 10.7 °C 9.3 °C 999.2 hPa South 9.7 km/h 22.5 km/h 91 % 0.0 mm 153 W/m2
09:50 10.8 °C 9.4 °C 998.9 hPa South 8.0 km/h 22.5 km/h 91 % 0.0 mm 160 W/m2
09:55 10.8 °C 9.4 °C 999.2 hPa SSE 6.4 km/h 22.5 km/h 91 % 0.0 mm 160 W/m2
10:00 10.8 °C 9.4 °C 999.2 hPa SE 12.9 km/h 20.9 km/h 91 % 0.0 mm 160 W/m2
10:05 10.9 °C 9.5 °C 998.9 hPa SSE 19.3 km/h 20.9 km/h 91 % 0.0 mm 156 W/m2
10:10 11.0 °C 9.6 °C 998.9 hPa South 17.7 km/h 22.5 km/h 91 % 0.0 mm 171 W/m2
10:20 11.2 °C 9.6 °C 998.9 hPa South 11.3 km/h 27.4 km/h 90 % 0.0 mm 197 W/m2
10:25 11.3 °C 9.7 °C 998.9 hPa South 8.0 km/h 24.1 km/h 90 % 0.0 mm 207 W/m2
10:30 11.3 °C 9.6 °C 998.9 hPa SSW 11.3 km/h 24.1 km/h 89 % 0.0 mm 206 W/m2
10:35 11.4 °C 9.6 °C 998.9 hPa South 9.7 km/h 22.5 km/h 89 % 0.0 mm 216 W/m2
10:40 11.4 °C 9.7 °C 998.5 hPa SSW 16.1 km/h 22.5 km/h 89 % 0.0 mm 216 W/m2
10:45 11.6 °C 9.8 °C 998.5 hPa South 14.5 km/h 20.9 km/h 89 % 0.0 mm 246 W/m2
10:50 11.6 °C 9.9 °C 998.2 hPa SSE 12.9 km/h 27.4 km/h 89 % 0.0 mm 264 W/m2
10:55 11.7 °C 9.8 °C 998.2 hPa South 14.5 km/h 27.4 km/h 88 % 0.0 mm 304 W/m2
11:00 11.9 °C 10.0 °C 998.2 hPa SSE 17.7 km/h 25.7 km/h 88 % 0.0 mm 306 W/m2
11:05 12.2 °C 10.2 °C 998.2 hPa SSE 17.7 km/h 25.7 km/h 88 % 0.0 mm 383 W/m2
11:10 12.4 °C 10.3 °C 998.2 hPa South 19.3 km/h 25.7 km/h 87 % 0.0 mm 369 W/m2
11:15 12.6 °C 10.5 °C 998.2 hPa South 12.9 km/h 22.5 km/h 87 % 0.0 mm 362 W/m2
11:20 12.8 °C 10.5 °C 997.9 hPa South 9.7 km/h 20.9 km/h 86 % 0.0 mm 350 W/m2
11:25 12.9 °C 10.7 °C 997.9 hPa SSE 17.7 km/h 22.5 km/h 86 % 0.0 mm 325 W/m2
11:30 13.0 °C 10.7 °C 997.9 hPa South 14.5 km/h 22.5 km/h 86 % 0.0 mm 318 W/m2
11:35 13.2 °C 10.7 °C 997.9 hPa SSE 17.7 km/h 25.7 km/h 85 % 0.0 mm 374 W/m2
11:40 13.3 °C 10.8 °C 997.5 hPa SSE 9.7 km/h 25.7 km/h 85 % 0.0 mm 353 W/m2
11:45 13.5 °C 10.8 °C 997.5 hPa South 9.7 km/h 29.0 km/h 84 % 0.0 mm 385 W/m2
11:50 13.7 °C 11.0 °C 997.2 hPa SSE 22.5 km/h 29.0 km/h 84 % 0.0 mm 410 W/m2
11:55 13.6 °C 10.8 °C 997.2 hPa SE 20.9 km/h 30.6 km/h 83 % 0.0 mm 410 W/m2
12:00 13.7 °C 10.6 °C 997.2 hPa South 22.5 km/h 30.6 km/h 82 % 0.0 mm 396 W/m2
12:05 13.8 °C 10.8 °C 997.2 hPa South 17.7 km/h 27.4 km/h 82 % 0.0 mm 355 W/m2
12:10 13.9 °C 10.9 °C 997.2 hPa SSE 17.7 km/h 32.2 km/h 82 % 0.0 mm 355 W/m2
12:15 13.9 °C 10.9 °C 996.8 hPa SSE 27.4 km/h 35.4 km/h 82 % 0.0 mm 348 W/m2
12:20 14.1 °C 10.7 °C 996.8 hPa South 16.1 km/h 35.4 km/h 80 % 0.0 mm 367 W/m2
12:25 14.1 °C 10.7 °C 996.8 hPa South 16.1 km/h 29.0 km/h 80 % 0.0 mm 329 W/m2
12:30 14.1 °C 10.8 °C 996.8 hPa SSE 12.9 km/h 32.2 km/h 81 % 0.0 mm 316 W/m2
12:35 13.9 °C 10.5 °C 996.8 hPa SSW 20.9 km/h 32.2 km/h 80 % 0.0 mm 315 W/m2
12:45 14.1 °C 10.7 °C 996.5 hPa South 11.3 km/h 22.5 km/h 80 % 0.0 mm 301 W/m2
12:50 13.9 °C 10.5 °C 996.5 hPa South 19.3 km/h 29.0 km/h 80 % 0.0 mm 285 W/m2
12:55 13.9 °C 10.5 °C 996.5 hPa South 8.0 km/h 30.6 km/h 80 % 0.0 mm 315 W/m2
13:00 14.1 °C 10.7 °C 996.5 hPa South 11.3 km/h 30.6 km/h 80 % 0.0 mm 327 W/m2
13:05 14.1 °C 10.7 °C 996.2 hPa South 19.3 km/h 30.6 km/h 80 % 0.0 mm 313 W/m2
13:10 14.1 °C 10.7 °C 996.2 hPa SW 9.7 km/h 33.8 km/h 80 % 0.0 mm 313 W/m2
13:15 14.1 °C 10.7 °C 996.2 hPa SSW 8.0 km/h 33.8 km/h 80 % 0.0 mm 299 W/m2
13:20 13.9 °C 10.5 °C 996.2 hPa South 16.1 km/h 27.4 km/h 80 % 0.0 mm 294 W/m2
13:25 13.9 °C 10.5 °C 995.8 hPa South 19.3 km/h 27.4 km/h 80 % 0.0 mm 290 W/m2
13:30 13.9 °C 10.5 °C 995.8 hPa SSW 17.7 km/h 29.0 km/h 80 % 0.0 mm 274 W/m2
13:35 13.7 °C 10.3 °C 995.8 hPa SSW 12.9 km/h 32.2 km/h 80 % 0.0 mm 248 W/m2
13:40 13.7 °C 10.5 °C 995.8 hPa SSW 16.1 km/h 32.2 km/h 81 % 0.0 mm 241 W/m2
13:45 13.6 °C 10.4 °C 995.5 hPa SSW 11.3 km/h 32.2 km/h 81 % 0.0 mm 234 W/m2
13:50 13.7 °C 10.5 °C 995.5 hPa SSW 16.1 km/h 29.0 km/h 81 % 0.0 mm 236 W/m2
13:55 13.5 °C 10.3 °C 995.5 hPa South 12.9 km/h 29.0 km/h 81 % 0.0 mm 239 W/m2
14:00 13.4 °C 10.2 °C 995.1 hPa South 27.4 km/h 27.4 km/h 81 % 0.0 mm 302 W/m2
14:05 13.6 °C 10.4 °C 995.1 hPa South 12.9 km/h 27.4 km/h 81 % 0.0 mm 288 W/m2
14:10 13.7 °C 10.5 °C 994.8 hPa SSW 16.1 km/h 27.4 km/h 81 % 0.0 mm 260 W/m2
14:15 13.6 °C 10.4 °C 994.8 hPa South 6.4 km/h 27.4 km/h 81 % 0.0 mm 253 W/m2
14:20 13.6 °C 10.2 °C 994.8 hPa South 19.3 km/h 29.0 km/h 80 % 0.0 mm 243 W/m2
14:25 13.6 °C 10.4 °C 994.8 hPa SSE 6.4 km/h 29.0 km/h 81 % 0.0 mm 221 W/m2
14:30 13.6 °C 10.2 °C 994.8 hPa SSE 8.0 km/h 29.0 km/h 80 % 0.0 mm 229 W/m2
14:35 13.6 °C 10.4 °C 994.5 hPa South 22.5 km/h 29.0 km/h 81 % 0.0 mm 223 W/m2
14:40 13.5 °C 10.3 °C 994.5 hPa SSW 20.9 km/h 30.6 km/h 81 % 0.0 mm 207 W/m2
14:45 13.4 °C 10.2 °C 994.5 hPa South 16.1 km/h 30.6 km/h 81 % 0.0 mm 178 W/m2
14:50 13.4 °C 10.2 °C 994.1 hPa SSE 14.5 km/h 25.7 km/h 81 % 0.0 mm 162 W/m2
14:55 13.4 °C 10.2 °C 994.1 hPa SSE 16.1 km/h 25.7 km/h 81 % 0.0 mm 178 W/m2
15:00 13.4 °C 10.4 °C 994.1 hPa South 12.9 km/h 22.5 km/h 82 % 0.0 mm 186 W/m2
15:10 13.4 °C 10.4 °C 994.1 hPa SSW 9.7 km/h 29.0 km/h 82 % 0.0 mm 193 W/m2
15:15 13.4 °C 10.4 °C 994.1 hPa South 8.0 km/h 29.0 km/h 82 % 0.0 mm 186 W/m2
15:20 13.5 °C 10.5 °C 993.8 hPa SSE 9.7 km/h 22.5 km/h 82 % 0.0 mm 179 W/m2
15:25 13.4 °C 10.4 °C 993.8 hPa SSE 20.9 km/h 25.7 km/h 82 % 0.0 mm 174 W/m2
15:30 13.4 °C 10.4 °C 993.8 hPa SSW 8.0 km/h 25.7 km/h 82 % 0.0 mm 176 W/m2
15:35 13.4 °C 10.4 °C 993.8 hPa South 19.3 km/h 25.7 km/h 82 % 0.0 mm 169 W/m2
15:40 13.4 °C 10.4 °C 993.5 hPa SSE 9.7 km/h 25.7 km/h 82 % 0.0 mm 160 W/m2
15:45 13.3 °C 10.3 °C 993.5 hPa South 14.5 km/h 25.7 km/h 82 % 0.0 mm 158 W/m2
15:50 13.3 °C 10.3 °C 993.1 hPa SSE 12.9 km/h 25.7 km/h 82 % 0.0 mm 155 W/m2
15:55 13.2 °C 10.2 °C 993.1 hPa South 22.5 km/h 29.0 km/h 82 % 0.0 mm 139 W/m2
16:00 13.2 °C 10.2 °C 993.5 hPa SSE 16.1 km/h 29.0 km/h 82 % 0.0 mm 130 W/m2
16:05 13.2 °C 10.2 °C 993.1 hPa SSW 19.3 km/h 29.0 km/h 82 % 0.0 mm 120 W/m2
16:10 13.2 °C 10.2 °C 993.1 hPa SSW 16.1 km/h 29.0 km/h 82 % 0.0 mm 100 W/m2
16:15 13.2 °C 10.3 °C 993.1 hPa South 14.5 km/h 29.0 km/h 83 % 0.0 mm 86 W/m2
16:20 13.2 °C 10.3 °C 993.1 hPa SSW 11.3 km/h 25.7 km/h 83 % 0.0 mm 67 W/m2
16:25 13.2 °C 10.2 °C 993.1 hPa SSW 16.1 km/h 30.6 km/h 82 % 0.0 mm 56 W/m2
16:30 13.1 °C 10.1 °C 993.1 hPa SSW 14.5 km/h 30.6 km/h 82 % 0.0 mm 69 W/m2
16:35 13.1 °C 10.1 °C 993.1 hPa SSW 14.5 km/h 29.0 km/h 82 % 0.0 mm 65 W/m2
16:40 12.9 °C 9.9 °C 993.1 hPa SSW 12.9 km/h 32.2 km/h 82 % 0.0 mm 53 W/m2
16:45 12.8 °C 10.0 °C 993.1 hPa South 11.3 km/h 32.2 km/h 83 % 0.0 mm 47 W/m2
16:50 12.7 °C 9.9 °C 992.8 hPa SSE 16.1 km/h 27.4 km/h 83 % 0.0 mm 46 W/m2
16:55 12.5 °C 9.9 °C 992.8 hPa SSW 11.3 km/h 27.4 km/h 84 % 0.0 mm 35 W/m2
17:00 12.4 °C 9.8 °C 992.8 hPa South 22.5 km/h 30.6 km/h 84 % 0.0 mm 42 W/m2
17:05 12.3 °C 9.9 °C 992.8 hPa South 12.9 km/h 30.6 km/h 85 % 0.0 mm 44 W/m2
17:10 12.2 °C 9.8 °C 992.8 hPa South 8.0 km/h 25.7 km/h 85 % 0.0 mm 32 W/m2
17:15 12.1 °C 9.8 °C 992.8 hPa SSW 11.3 km/h 25.7 km/h 86 % 0.0 mm 33 W/m2
17:20 12.1 °C 9.8 °C 992.4 hPa SW 14.5 km/h 22.5 km/h 86 % 0.0 mm 32 W/m2
17:25 11.9 °C 9.8 °C 992.8 hPa SW 8.0 km/h 22.5 km/h 87 % 0.0 mm 21 W/m2
17:30 11.8 °C 9.7 °C 992.8 hPa SSW 8.0 km/h 22.5 km/h 87 % 0.0 mm 16 W/m2
17:35 11.7 °C 9.8 °C 992.8 hPa SSW 11.3 km/h 22.5 km/h 88 % 0.0 mm 14 W/m2
17:40 11.6 °C 9.7 °C 992.8 hPa South 16.1 km/h 20.9 km/h 88 % 0.0 mm 14 W/m2
17:45 11.6 °C 9.6 °C 992.8 hPa South 12.9 km/h 20.9 km/h 88 % 0.0 mm 11 W/m2
17:55 11.4 °C 9.9 °C 993.1 hPa South 11.3 km/h 17.7 km/h 90 % 0.0 mm 11 W/m2
18:00 11.4 °C 9.8 °C 993.1 hPa SSW 6.4 km/h 17.7 km/h 90 % 0.0 mm 9 W/m2
18:05 11.3 °C 9.7 °C 993.1 hPa South 12.9 km/h 17.7 km/h 90 % 0.0 mm 5 W/m2
18:10 11.2 °C 9.8 °C 993.1 hPa SSW 11.3 km/h 20.9 km/h 91 % 0.0 mm 0 W/m2
18:15 11.1 °C 9.7 °C 993.1 hPa SSW 4.8 km/h 20.9 km/h 91 % 0.0 mm 9 W/m2
18:20 11.1 °C 9.8 °C 993.1 hPa SW 6.4 km/h 16.1 km/h 92 % 0.0 mm 11 W/m2
18:25 10.8 °C 9.6 °C 993.1 hPa West 8.0 km/h 14.5 km/h 92 % 0.0 mm 16 W/m2
18:30 10.7 °C 9.6 °C 993.1 hPa WSW 6.4 km/h 22.5 km/h 93 % 0.0 mm 11 W/m2
18:35 10.5 °C 9.4 °C 993.1 hPa West 9.7 km/h 22.5 km/h 93 % 0.0 mm 7 W/m2
18:40 10.4 °C 9.3 °C 993.1 hPa NW 11.3 km/h 19.3 km/h 93 % 0.0 mm 0 W/m2
18:45 10.3 °C 9.2 °C 993.1 hPa WSW 11.3 km/h 19.3 km/h 93 % 0.0 mm 0 W/m2
18:50 10.2 °C 9.3 °C 993.1 hPa West 17.7 km/h 17.7 km/h 94 % 0.0 mm 0 W/m2
18:55 10.2 °C 9.2 °C 993.5 hPa West 9.7 km/h 20.9 km/h 94 % 0.0 mm 0 W/m2
19:00 10.2 °C 9.2 °C 993.8 hPa WNW 17.7 km/h 22.5 km/h 94 % 0.0 mm 0 W/m2
19:05 10.1 °C 9.2 °C 993.5 hPa NW 8.0 km/h 22.5 km/h 94 % 0.0 mm 0 W/m2
19:10 10.0 °C 9.1 °C 993.5 hPa WNW 6.4 km/h 22.5 km/h 94 % 0.0 mm 0 W/m2
19:15 9.8 °C 8.9 °C 993.1 hPa West 12.9 km/h 17.7 km/h 94 % 0.0 mm 0 W/m2
19:20 9.7 °C 8.8 °C 993.1 hPa NW 9.7 km/h 19.3 km/h 94 % 0.0 mm 0 W/m2
19:25 9.7 °C 9.0 °C 993.1 hPa NW 9.7 km/h 20.9 km/h 95 % 0.0 mm 0 W/m2
19:30 9.7 °C 9.0 °C 993.1 hPa West 12.9 km/h 20.9 km/h 95 % 0.0 mm 0 W/m2
19:35 9.7 °C 8.9 °C 993.5 hPa West 6.4 km/h 14.5 km/h 95 % 0.0 mm 0 W/m2
19:40 9.7 °C 8.9 °C 993.5 hPa West 4.8 km/h 14.5 km/h 95 % 0.0 mm 0 W/m2
19:45 9.7 °C 8.9 °C 993.1 hPa NW 4.8 km/h 14.5 km/h 95 % 0.0 mm 0 W/m2
19:50 9.6 °C 8.8 °C 992.8 hPa West 8.0 km/h 17.7 km/h 95 % 0.0 mm 0 W/m2
19:55 9.5 °C 8.7 °C 992.8 hPa NW 9.7 km/h 17.7 km/h 95 % 0.3 mm 0 W/m2
20:00 9.3 °C 8.6 °C 992.8 hPa WNW 6.4 km/h 14.5 km/h 95 % 0.3 mm 0 W/m2
20:05 9.3 °C 8.5 °C 993.1 hPa West 8.0 km/h 16.1 km/h 95 % 0.3 mm 0 W/m2
20:10 9.3 °C 8.6 °C 993.5 hPa West 6.4 km/h 16.1 km/h 95 % 0.3 mm 0 W/m2
20:15 9.3 °C 8.6 °C 993.5 hPa West 4.8 km/h 16.1 km/h 95 % 0.3 mm 0 W/m2
20:20 9.4 °C 8.7 °C 993.5 hPa West 8.0 km/h 14.5 km/h 95 % 0.3 mm 0 W/m2
20:25 9.4 °C 8.7 °C 993.8 hPa WSW 4.8 km/h 14.5 km/h 95 % 0.3 mm 0 W/m2
20:30 9.5 °C 8.6 °C 993.8 hPa WSW 4.8 km/h 12.9 km/h 94 % 0.3 mm 0 W/m2
20:35 9.5 °C 8.6 °C 993.8 hPa West 4.8 km/h 16.1 km/h 94 % 0.3 mm 0 W/m2
20:40 9.5 °C 8.6 °C 993.5 hPa West 4.8 km/h 16.1 km/h 94 % 0.3 mm 0 W/m2
20:45 9.6 °C 8.6 °C 993.8 hPa West 1.6 km/h 12.9 km/h 94 % 0.3 mm 0 W/m2
20:50 9.5 °C 8.6 °C 993.5 hPa West 6.4 km/h 12.9 km/h 94 % 0.3 mm 0 W/m2
20:55 9.5 °C 8.6 °C 993.8 hPa SW 6.4 km/h 16.1 km/h 94 % 0.0 mm 0 W/m2
21:00 9.5 °C 8.6 °C 993.8 hPa SSW 6.4 km/h 16.1 km/h 94 % 0.0 mm 0 W/m2
21:05 9.5 °C 8.6 °C 993.8 hPa WSW 3.2 km/h 11.3 km/h 94 % 0.0 mm 0 W/m2
21:15 9.4 °C 8.5 °C 993.8 hPa West 6.4 km/h 14.5 km/h 94 % 0.0 mm 0 W/m2
21:20 9.4 °C 8.5 °C 993.8 hPa WSW 6.4 km/h 11.3 km/h 94 % 0.0 mm 0 W/m2
21:30 9.3 °C 8.4 °C 994.1 hPa WSW 8.0 km/h 12.9 km/h 94 % 0.0 mm 0 W/m2
21:40 9.2 °C 8.3 °C 993.8 hPa WSW 11.3 km/h 14.5 km/h 94 % 0.0 mm 0 W/m2
21:45 9.2 °C 8.3 °C 993.8 hPa WSW 3.2 km/h 12.9 km/h 94 % 0.0 mm 0 W/m2
21:50 9.2 °C 8.3 °C 993.8 hPa SW 9.7 km/h 14.5 km/h 94 % 0.0 mm 0 W/m2
22:00 9.0 °C 8.2 °C 993.8 hPa WSW 9.7 km/h 22.5 km/h 95 % 0.0 mm 0 W/m2
22:05 8.8 °C 7.9 °C 993.5 hPa WSW 4.8 km/h 22.5 km/h 94 % 0.3 mm 0 W/m2
22:10 8.7 °C 7.9 °C 993.5 hPa SSW 6.4 km/h 20.9 km/h 95 % 0.3 mm 0 W/m2
22:15 8.6 °C 7.9 °C 993.5 hPa West 4.8 km/h 16.1 km/h 95 % 0.3 mm 0 W/m2
22:20 8.6 °C 7.6 °C 993.5 hPa SW 8.0 km/h 12.9 km/h 94 % 0.3 mm 0 W/m2
22:25 8.6 °C 7.8 °C 993.5 hPa WSW 3.2 km/h 11.3 km/h 95 % 0.3 mm 0 W/m2
22:30 8.6 °C 7.6 °C 993.8 hPa WSW 4.8 km/h 11.3 km/h 94 % 0.3 mm 0 W/m2
22:35 8.6 °C 7.6 °C 993.8 hPa Calm   9.7 km/h 94 % 0.3 mm 0 W/m2
22:40 8.6 °C 7.6 °C 993.8 hPa West 4.8 km/h 9.7 km/h 94 % 0.3 mm 0 W/m2
22:45 8.6 °C 7.7 °C 993.5 hPa SSW 3.2 km/h 8.0 km/h 94 % 0.3 mm 0 W/m2
22:50 8.7 °C 7.8 °C 993.5 hPa SSW 3.2 km/h 9.7 km/h 94 % 0.3 mm 0 W/m2
22:55 8.6 °C 7.7 °C 993.5 hPa SSW 3.2 km/h 9.7 km/h 94 % 0.3 mm 0 W/m2
23:00 8.5 °C 7.6 °C 993.5 hPa Calm   8.0 km/h 94 % 0.3 mm 0 W/m2
23:05 8.5 °C 7.7 °C 993.5 hPa SSW 4.8 km/h 8.0 km/h 95 % 0.0 mm 0 W/m2
23:10 8.5 °C 7.7 °C 993.5 hPa SSW 3.2 km/h 8.0 km/h 95 % 0.0 mm 0 W/m2
23:15 8.4 °C 7.7 °C 993.5 hPa SSW 4.8 km/h 6.4 km/h 95 % 0.0 mm 0 W/m2
23:20 8.4 °C 7.6 °C 993.5 hPa South 4.8 km/h 6.4 km/h 95 % 0.0 mm 0 W/m2
23:25 8.4 °C 7.6 °C 993.5 hPa South 4.8 km/h 6.4 km/h 95 % 0.0 mm 0 W/m2
23:30 8.4 °C 7.6 °C 993.5 hPa South 6.4 km/h 6.4 km/h 95 % 0.0 mm 0 W/m2
23:40 8.4 °C 7.8 °C 993.5 hPa South 4.8 km/h 6.4 km/h 96 % 0.0 mm 0 W/m2
23:45 8.5 °C 7.9 °C 993.5 hPa South 8.0 km/h 9.7 km/h 96 % 0.0 mm 0 W/m2
23:50 8.6 °C 8.0 °C 993.5 hPa South 3.2 km/h 12.9 km/h 96 % 0.0 mm 0 W/m2
23:55 8.5 °C 7.9 °C 993.5 hPa SSW 3.2 km/h 12.9 km/h 96 % 0.0 mm 0 W/m2
Avec l'autorisation de Weather Underground - 1.75 mb